Beidou DW 56

operational
NORAD ID: 56564 Int'l Des: 2023-066 Owner: CNSA Country: CN Constellation: BeiDou
HEOCIRCULARGSO

Über Beidou DW 56

Beschreibung wird geladen...

Live-Position

3D-Globus wird geladen...

Nächste Überflüge

Höhenverlauf

Altitude vs Time

uPlot chart will show altitude changes over time

Zweizeiliger Elementsatz

1 56564U 23066A 25298.85896593 -.00000099 00000-0 00000+0 0 9990
2 56564 0.9253 298.4293 0004728 219.7033 345.5834 1.00273527 9042
Epoch: 25. Okt. 2025 • Age: 6 hours

Aktueller Status

Höhe 35783.2 km
Geschwindigkeit 3.07 km/s
Subsatellitenpunkt -0.78°S, 160.03°E
Startdatum 17. Mai 2023
Alter 2.4 years
Typ navigation

Technische Details

Klassifizierung Payload
Masse 3060.00 kg
Trockenmasse 1700.00 kg
Gesamtmasse 3060.00 kg
Länge 3.00 m
Durchmesser 1.70 m
Spannweite 18.00 m
Form Box + 2 Pan
Hersteller CAST
Bus-Typ DFH-3B
Phasenstatus In Orbit
Besitzer/Staat CNSA/CN

Große Konstellationen

Loading constellations...